Weather History for KMFV - December, 2012

Change the Weather History Date:

Sunday, December 30, 2012

  Actual Average (KWAL) Record (KWAL)
Temperature  
Mean Temperature 40 °F 38 °F  
Max Temperature 44 °F 46 °F 71 °F (1996)
Min Temperature 35 °F 29 °F 15 °F (1993)
Degree Days  
Heating Degree Days 24    
Month to date heating degree days  
Since 1 July heating degree days  
Cooling Degree Days 0    
Month to date cooling degree days  
Year to date cooling degree days  
Moisture  
Dew Point 23 °F    
Average Humidity 49    
Maximum Humidity 57    
Minimum Humidity 39    
Precipitation  
Precipitation 0.00 in 0.09 in 0.94 in (2007)
Month to date precipitation 3.34  
Year to date precipitation 40.75  
Sea Level Pressure  
Sea Level Pressure 30.12 in    
Wind  
Wind Speed 21 mph (SE)    
Max Wind Speed 31 mph    
Max Gust Speed 46 mph    
Visibility 10 miles    
Events      
T = Trace of Precipitation, MM = Missing Value Source: NWS Daily Summary

Daily Weather History Graph

Daily Weather History Graph

Search for Another Location

Airport or City:

Trip Planner

Search our weather history database for the weather conditions in past years. The results will help you decide how hot, cold, wet, or windy it might be!

Date:

Astronomy

Dec. 30, 2012 Rise Set
Actual Time 7:17 AM EST 4:54 PM EST
Civil Twilight 6:48 AM EST 5:23 PM EST
Nautical Twilight 6:15 AM EST 5:56 PM EST
Astronomical Twilight 5:43 AM EST 6:27 PM EST
Moon 7:19 PM EST (12/30) 8:28 AM EST (12/30)
Length of Visible Light 10h 34m
Length of Day
9h 36m
Waning Gibbous, 95% of the Moon is Illuminated
Dec 30
Waning Gibbous
Jan 4
Last Quarter
Jan 11
New
Jan 18
First Quarter
Jan 26
Full

Hourly Weather History & Observations

Time (EST) Temp. Windchill Dew Point Humidity Pressure Visibility Wind Dir Wind Speed Gust Speed Precip Events Conditions
12:15 AM 42.8 °F 32.5 °F 28.4 °F 57% 29.80 in 10.0 mi SE 28.8 mph 36.8 mph N/A   Overcast
12:55 AM 42.8 °F 33.8 °F 28.4 °F 57% 29.81 in 10.0 mi ESE 21.9 mph 26.5 mph N/A   Overcast
1:15 AM 42.8 °F 34.3 °F 28.4 °F 57% 29.81 in 10.0 mi SE 19.6 mph 35.7 mph N/A   Overcast
1:35 AM 42.8 °F 34.8 °F 28.4 °F 57% 29.83 in 10.0 mi SE 17.3 mph 36.8 mph N/A   Overcast
1:56 AM 42.8 °F 35.1 °F 28.4 °F 57% 29.84 in 10.0 mi SE 16.1 mph 29.9 mph N/A   Overcast
2:17 AM 42.8 °F 34.8 °F 28.4 °F 57% 29.84 in 10.0 mi SE 17.3 mph 25.3 mph N/A   Overcast
2:37 AM 42.8 °F 34.8 °F 28.4 °F 57% 29.86 in 10.0 mi SE 17.3 mph 27.6 mph N/A   Overcast
2:57 AM 42.8 °F 34.8 °F 28.4 °F 57% 29.87 in 10.0 mi SE 17.3 mph 27.6 mph N/A   Overcast
3:18 AM 42.8 °F 35.8 °F 28.4 °F 57% 29.88 in 10.0 mi SE 13.8 mph 29.9 mph N/A   Overcast
3:42 AM 42.8 °F 34.5 °F 26.6 °F 53% 29.89 in 10.0 mi SE 18.4 mph 29.9 mph N/A   Mostly Cloudy
3:58 AM 41.0 °F 32.2 °F 26.6 °F 57% 29.89 in 10.0 mi SE 18.4 mph 35.7 mph N/A   Mostly Cloudy
4:19 AM 41.0 °F 31.4 °F 26.6 °F 57% 29.90 in 10.0 mi ESE 21.9 mph 33.4 mph N/A   Scattered Clouds
4:39 AM 41.0 °F 30.7 °F 26.6 °F 57% 29.92 in 10.0 mi SE 25.3 mph 32.2 mph N/A   Clear
4:59 AM 41.0 °F 30.7 °F 26.6 °F 57% 29.93 in 10.0 mi SE 25.3 mph 36.8 mph N/A   Scattered Clouds
5:19 AM 41.0 °F 31.4 °F 24.8 °F 53% 29.93 in 10.0 mi SE 21.9 mph 32.2 mph N/A   Scattered Clouds
5:39 AM 41.0 °F 32.5 °F 24.8 °F 53% 29.95 in 10.0 mi SE 17.3 mph 35.7 mph N/A   Clear
5:59 AM 39.2 °F 29.3 °F 24.8 °F 56% 29.96 in 10.0 mi SE 20.7 mph 34.5 mph N/A   Clear
6:20 AM 39.2 °F 29.8 °F 23.0 °F 52% 29.98 in 10.0 mi SE 18.4 mph 34.5 mph N/A   Scattered Clouds
7:00 AM 39.2 °F 28.5 °F 24.8 °F 56% 30.01 in 10.0 mi SE 24.2 mph 31.1 mph N/A   Clear
7:20 AM 39.2 °F 29.0 °F 23.0 °F 52% 30.01 in 10.0 mi SE 21.9 mph 34.5 mph N/A   Clear
7:40 AM 39.2 °F 28.0 °F 24.8 °F 56% 30.03 in 10.0 mi ESE 26.5 mph 32.2 mph N/A   Clear
8:00 AM 39.2 °F 28.7 °F 24.8 °F 56% 30.04 in 10.0 mi ESE 23.0 mph 38.0 mph N/A   Clear
8:20 AM 41.0 °F 30.5 °F 24.8 °F 53% 30.06 in 10.0 mi SE 26.5 mph 36.8 mph N/A   Scattered Clouds
8:55 AM 42.8 °F 32.5 °F 23.0 °F 46% 30.08 in 10.0 mi ESE 28.8 mph 38.0 mph N/A   Scattered Clouds
9:15 AM 42.8 °F 33.3 °F 24.8 °F 49% 30.08 in 10.0 mi ESE 24.2 mph 42.6 mph N/A   Clear
9:35 AM 42.8 °F 32.7 °F 24.8 °F 49% 30.09 in 10.0 mi ESE 27.6 mph 41.4 mph N/A   Clear
9:56 AM 42.8 °F 32.3 °F 23.0 °F 46% 30.11 in 10.0 mi ESE 29.9 mph 42.6 mph N/A   Clear
10:15 AM 42.8 °F 32.1 °F 23.0 °F 46% 30.12 in 10.0 mi SE 31.1 mph 40.3 mph N/A   Clear
10:35 AM 42.8 °F 32.1 °F 23.0 °F 46% 30.12 in 10.0 mi SE 31.1 mph 42.6 mph N/A   Clear
10:55 AM 42.8 °F 33.1 °F 23.0 °F 46% 30.13 in 10.0 mi ESE 25.3 mph 46.0 mph N/A   Clear
11:15 AM 42.8 °F 32.3 °F 21.2 °F 42% 30.14 in 10.0 mi ESE 29.9 mph 36.8 mph N/A   Scattered Clouds
11:35 AM 42.8 °F 32.7 °F 21.2 °F 42% 30.14 in 10.0 mi SE 27.6 mph 43.7 mph N/A   Scattered Clouds
11:55 AM 42.8 °F 34.0 °F 21.2 °F 42% 30.13 in 10.0 mi SE 20.7 mph 35.7 mph N/A   Mostly Cloudy
12:15 PM 44.6 °F 35.5 °F 21.2 °F 39% 30.13 in 10.0 mi ESE 25.3 mph 35.7 mph N/A   Mostly Cloudy
12:35 PM 44.6 °F 37.4 °F 21.2 °F 39% 30.13 in 10.0 mi SE 16.1 mph 38.0 mph N/A   Scattered Clouds
12:55 PM 44.6 °F 36.6 °F 21.2 °F 39% 30.14 in 10.0 mi SE 19.6 mph 32.2 mph N/A   Mostly Cloudy
1:15 PM 44.6 °F 37.8 °F 21.2 °F 39% 30.14 in 10.0 mi SE 15.0 mph 36.8 mph N/A   Overcast
1:35 PM 44.6 °F 36.1 °F 21.2 °F 39% 30.14 in 10.0 mi ESE 21.9 mph 32.2 mph N/A   Overcast
1:55 PM 44.6 °F 35.1 °F 21.2 °F 39% 30.15 in 10.0 mi ESE 27.6 mph 34.5 mph N/A   Mostly Cloudy
2:15 PM 44.6 °F 36.9 °F 21.2 °F 39% 30.15 in 10.0 mi SE 18.4 mph 27.6 mph N/A   Mostly Cloudy
2:35 PM 44.6 °F 36.6 °F 23.0 °F 43% 30.17 in 10.0 mi ESE 19.6 mph 28.8 mph N/A   Mostly Cloudy
2:55 PM 44.6 °F 37.8 °F 21.2 °F 39% 30.18 in 10.0 mi SE 15.0 mph 29.9 mph N/A   Mostly Cloudy
3:15 PM 42.8 °F 34.3 °F 21.2 °F 42% 30.19 in 10.0 mi ESE 19.6 mph 36.8 mph N/A   Mostly Cloudy
3:35 PM 42.8 °F 33.8 °F 21.2 °F 42% 30.20 in 10.0 mi ESE 21.9 mph 33.4 mph N/A   Mostly Cloudy
3:55 PM 42.8 °F 33.1 °F 21.2 °F 42% 30.21 in 10.0 mi ESE 25.3 mph 34.5 mph N/A   Scattered Clouds
4:15 PM 42.8 °F 33.3 °F 21.2 °F 42% 30.22 in 10.0 mi ESE 24.2 mph 31.1 mph N/A   Scattered Clouds
4:35 PM 41.0 °F 31.4 °F 21.2 °F 45% 30.23 in 10.0 mi ESE 21.9 mph 32.2 mph N/A   Clear
4:55 PM 41.0 °F 31.6 °F 21.2 °F 45% 30.24 in 10.0 mi ESE 20.7 mph 33.4 mph N/A   Clear
5:15 PM 41.0 °F 31.4 °F 21.2 °F 45% 30.26 in 10.0 mi ESE 21.9 mph 27.6 mph N/A   Clear
5:35 PM 39.2 °F 30.5 °F 21.2 °F 49% 30.27 in 10.0 mi SE 16.1 mph 24.2 mph N/A   Clear
5:55 PM 41.0 °F 33.1 °F 21.2 °F 45% 30.28 in 10.0 mi ESE 15.0 mph 25.3 mph N/A   Clear
6:15 PM 39.2 °F 30.2 °F 21.2 °F 49% 30.29 in 10.0 mi SE 17.3 mph 27.6 mph N/A   Clear
6:35 PM 39.2 °F 30.5 °F 21.2 °F 49% 30.28 in 10.0 mi SE 16.1 mph 23.0 mph N/A   Clear
6:55 PM 39.2 °F 30.8 °F 21.2 °F 49% 30.29 in 10.0 mi SE 15.0 mph 20.7 mph N/A   Clear
7:15 PM 39.2 °F 31.2 °F 21.2 °F 49% 30.28 in 10.0 mi SE 13.8 mph 24.2 mph N/A   Clear
7:35 PM 39.2 °F 30.5 °F 21.2 °F 49% 30.29 in 10.0 mi SE 16.1 mph 21.9 mph N/A   Clear
7:55 PM 39.2 °F 32.5 °F 19.4 °F 45% 30.28 in 10.0 mi SE 10.4 mph 21.9 mph N/A   Clear
8:16 PM 39.2 °F 31.6 °F 21.2 °F 49% 30.28 in 10.0 mi SE 12.7 mph 17.3 mph N/A   Clear
8:35 PM 39.2 °F 33.6 °F 21.2 °F 49% 30.29 in 10.0 mi SE 8.1 mph - N/A   Clear
8:56 PM 37.4 °F 29.8 °F 21.2 °F 52% 30.30 in 10.0 mi SE 11.5 mph 17.3 mph N/A   Clear
9:15 PM 37.4 °F 30.8 °F 21.2 °F 52% 30.31 in 10.0 mi SE 9.2 mph - N/A   Clear
9:35 PM 37.4 °F 30.8 °F 21.2 °F 52% 30.31 in 10.0 mi SE 9.2 mph - N/A   Clear
9:55 PM 37.4 °F 31.4 °F 23.0 °F 56% 30.32 in 10.0 mi SE 8.1 mph - N/A   Clear
10:15 PM 37.4 °F 32.1 °F 21.2 °F 52% 30.33 in 10.0 mi ESE 6.9 mph - N/A   Clear
10:35 PM 37.4 °F 32.1 °F 21.2 °F 52% 30.33 in 10.0 mi SE 6.9 mph - N/A   Clear
10:55 PM 37.4 °F 32.8 °F 23.0 °F 56% 30.34 in 10.0 mi SE 5.8 mph - N/A   Clear
11:15 PM 37.4 °F 32.8 °F 21.2 °F 52% 30.34 in 10.0 mi SE 5.8 mph - N/A   Clear
11:35 PM 37.4 °F 32.8 °F 21.2 °F 52% 30.33 in 10.0 mi SE 5.8 mph - N/A   Clear
11:55 PM 35.6 °F 29.9 °F 21.2 °F 56% 30.32 in 10.0 mi SE 6.9 mph - N/A   Clear